This demonstration page uses our WeatherBlox Daily Observations layout. Learn more.

Left ArrowRight Arrow

Hourly Observations for May 27, 2016

Temp ( °F °C ) Dew Point ( °F °C ) Humidity (%) Winds ( mph kmh ) Pressure ( in mb ) Visibility ( mi km ) Precip ( " mm )
12:53 am 00:53 Clear 66 18.9 63 17.2 90 90 N N/A 30.02 1017 10 16 N/A
1:53 am 01:53 Clear 66 18.9 63 17.2 90 90 SSE 3 6 30.02 1017 10 16 N/A
2:53 am 02:53 Clear 65 18.3 63 17.2 93 93 N N/A 30.02 1017 10 16 N/A
3:53 am 03:53 Mostly Clear 64 17.8 62 16.7 93 93 N N/A 30.02 1017 10 16 N/A
4:53 am 04:53 Clear 63 17.2 62 16.7 97 97 N N/A 30.03 1017 8 13 N/A
5:53 am 05:53 Clear 64 17.8 62 16.7 93 93 N N/A 30.03 1017 9 14 N/A
6:53 am 06:53 Sunny with Mist and Fog 64 17.8 63 17.2 96 96 N N/A 30.03 1017 6 10 N/A
7:53 am 07:53 Sunny 66 18.9 63 17.2 90 90 VRB 3 6 30.04 1017 9 14 N/A
8:53 am 08:53 Sunny 72 22.2 64 17.8 76 76 S 5 7 30.04 1017 10 16 N/A
9:53 am 09:53 Sunny 76 24.4 66 18.9 72 72 N N/A 30.03 1017 10 16 N/A
10:53 am 10:53 Sunny 79 26.1 65 18.3 62 62 VRB 5 7 30.02 1017 10 16 N/A
11:53 am 11:53 Sunny 83 28.3 66 18.9 57 57 WSW 5 7 30.03 1017 10 16 N/A
12:53 pm 12:53 Sunny 85 29.4 62 16.7 46 46 VRB 7 11 30.02 1017 10 16 N/A
1:53 pm 13:53 Mostly Sunny 86 30 64 17.8 48 48 VRB 6 9 30.01 1016 10 16 N/A
2:53 pm 14:53 Mostly Sunny 86 30 65 18.3 49 49 VRB 6 9 30.00 1016 10 16 N/A
3:53 pm 15:53 Sunny 87 30.6 63 17.2 45 45 SSW 10 17 29.98 1015 10 16 N/A
4:53 pm 16:53 Mostly Sunny 87 30.6 64 17.8 46 46 VRB 7 11 29.97 1015 10 16 N/A
5:53 pm 17:53 Mostly Sunny 86 30 63 17.2 46 46 SSW 6 9 29.96 1015 10 16 N/A
6:53 pm 18:53 Sunny 85 29.4 63 17.2 48 48 VRB 6 9 29.95 1014 10 16 N/A
7:53 pm 19:53 Sunny 84 28.9 63 17.2 49 49 S 6 9 29.96 1014 10 16 N/A
8:53 pm 20:53 Sunny 81 27.2 64 17.8 57 57 S 3 6 29.96 1015 10 16 N/A
9:53 pm 21:53 Clear 73 22.8 66 18.9 79 79 N N/A 29.98 1015 10 16 N/A
10:53 pm 22:53 Clear 70 21.1 65 18.3 84 84 N N/A 30.01 1016 10 16 N/A
11:53 pm 23:53 Clear 71 21.7 66 18.9 84 84 N N/A 30.01 1016 10 16 N/A

Powered by AerisWeather